CW0682 Weather Reports


Display with metric or nautical units.
time (UTC)temp
F
wind
direction
speed
MPH
gust
MPH
rain 1hr
in
rain 24hr
in
rain mn
in
humidity
%
barometer
mb
20260505153013 0 0.0 0.0 0.00 0.00 0.00 1012.5
20260505151505 0 0.0 0.0 0.00 0.00 0.00 1012.3
20260505124523 0 0.0 0.0 0.00 0.00 0.00 1010.9
20260505123018 0 0.0 0.0 0.00 0.00 0.00 1010.8
20260505121528 0 0.0 0.0 0.00 0.00 0.00 1010.7
20260505120009 0 0.0 0.0 0.00 0.00 0.00 1010.7
20260505114505 0 0.0 0.0 0.00 0.00 0.00 1010.5
20260505113000 0 0.0 0.0 0.00 0.00 0.00 1010.5
20260505111556 0 0.0 0.0 0.00 0.00 0.00 1010.3
20260505101551 57 202 5.0 7.0 0.00 0.00 0.00 63 1009.9
20260505100048 56 196 3.0 5.0 0.00 0.00 0.00 66 1009.8
20260505094547 55 197 1.0 6.0 0.00 0.00 0.00 67 1009.7
20260505093053 55 171 1.0 5.0 0.00 0.00 0.00 68 1009.7
20260505091543 55 148 0.0 1.0 0.00 0.00 0.00 68 1009.6
20260505090045 55 165 1.0 3.0 0.00 0.00 0.00 68 1009.6
20260505084550 57 176 5.0 7.0 0.00 0.00 0.00 67 1009.5
20260505083046 59 196 3.0 9.0 0.00 0.00 0.00 68 1009.4
20260505081533 58 165 1.0 3.0 0.00 0.00 0.00 67 1009.4
20260505080041 58 211 2.0 5.0 0.00 0.00 0.00 67 1009.2
20260505074529 58 223 4.0 5.0 0.00 0.00 0.00 63 1009.2
20260505073033 58 223 0.0 0.0 0.00 0.00 0.00 59 1009.2
20260505071523 59 211 3.0 5.0 0.00 0.00 0.00 58 1009.2
20260505070020 60 200 6.0 10.0 0.00 0.00 0.00 56 1008.9
20260505064521 61 213 9.0 18.0 0.00 0.00 0.00 55 1008.6
20260505063018 62 127 1.0 4.0 0.00 0.00 0.00 51 1008.6
20260505061517 63 200 0.0 0.0 0.00 0.00 0.00 48 1008.6
20260505060019 65 200 0.0 2.0 0.00 0.00 0.00 44 1008.5
20260505054517 65 192 1.0 3.0 0.00 0.00 0.00 45 1008.3
20260505053019 64 182 1.0 2.0 0.00 0.00 0.00 47 1008.2
20260505051517 63 107 0.0 4.0 0.00 0.00 0.00 50 1008.3
20260505041513 62 153 5.0 8.0 0.00 0.00 0.00 52 1008.2
20260505040012 63 145 6.0 9.0 0.00 0.00 0.00 51 1008.1
20260505034512 64 153 5.0 7.0 0.00 0.00 0.00 50 1007.9
20260505033011 65 141 3.0 5.0 0.00 0.00 0.00 49 1007.8
20260505031512 67 155 7.0 8.0 0.00 0.00 0.00 38 1007.7
20260505030010 71 169 5.0 6.0 0.00 0.00 0.00 28 1007.6
20260505024508 75 162 6.0 7.0 0.00 0.00 0.00 23 1007.5
20260505023008 83 170 4.0 5.0 0.00 0.00 0.00 16 1007.6
20260505021512 87 53 0.0 0.0 0.00 0.00 0.00 12 1007.6
20260505020015 88 53 0.0 0.0 0.00 0.00 0.00 11 1007.7
20260505014506 85 53 1.0 2.0 0.00 0.00 0.00 14 1007.8
20260505013104 84 89 1.0 4.0 0.00 0.00 0.00 14 1007.9
20260505011503 84 54 4.0 6.0 0.00 0.00 0.00 18 1008.0
20260505010002 82 40 4.0 8.0 0.00 0.00 0.00 14 1008.1
20260505004601 85 69 5.0 8.0 0.00 0.00 0.00 15 1008.2
20260505003059 85 32 5.0 7.0 0.00 0.00 0.00 15 1008.2
20260505001558 85 42 5.0 10.0 0.00 0.00 0.00 15 1008.3
20260505000059 85 28 6.0 12.0 0.00 0.00 0.00 15 1008.3
20260504234557 86 32 3.0 13.0 0.00 0.00 0.00 15 1008.3
20260504233056 87 339 2.0 8.0 0.00 0.00 0.00 13 1008.3
20260504231557 86 350 5.0 12.0 0.00 0.00 0.00 12 1008.4
20260504230053 86 17 8.0 12.0 0.00 0.00 0.00 12 1008.6
20260504224652 84 30 10.0 13.0 0.00 0.00 0.00 15 1008.7
20260504223049 87 30 10.0 13.0 0.00 0.00 0.00 15 1008.8
20260504221545 87 11 10.0 14.0 0.00 0.00 0.00 12 1008.9
20260504220042 86 17 8.0 13.0 0.00 0.00 0.00 15 1009.0
20260504214546 82 40 12.0 15.0 0.00 0.00 0.00 20 1009.2
20260504213039 82 30 12.0 14.0 0.00 0.00 0.00 21 1009.3
20260504211536 81 32 13.0 16.0 0.00 0.00 0.00 19 1009.5
20260504210050 80 53 12.0 17.0 0.00 0.00 0.00 22 1009.6
20260504204551 82 33 12.0 18.0 0.00 0.00 0.00 24 1009.7
20260504203035 83 49 10.0 13.0 0.00 0.00 0.00 22 1009.8
20260504201533 84 25 6.0 11.0 0.00 0.00 0.00 22 1009.8
20260504200031 82 355 5.0 10.0 0.00 0.00 0.00 20 1009.9
20260504194529 83 53 5.0 9.0 0.00 0.00 0.00 22 1010.0
20260504193028 82 207 4.0 8.0 0.00 0.00 0.00 18 1010.0
20260504191524 80 320 2.0 7.0 0.00 0.00 0.00 22 1010.1
20260504190022 78 271 3.0 9.0 0.00 0.00 0.00 22 1010.2
20260504184519 74 168 2.0 9.0 0.00 0.00 0.00 23 1010.2
20260504183017 76 309 2.0 10.0 0.00 0.00 0.00 27 1010.3
20260504181516 74 186 2.0 9.0 0.00 0.00 0.00 27 1010.4
20260504180015 74 323 4.0 10.0 0.00 0.00 0.00 29 1010.4
20260504174512 73 319 5.0 8.0 0.00 0.00 0.00 32 1010.3
20260504173010 71 298 4.0 8.0 0.00 0.00 0.00 31 1010.3
20260504171507 71 346 3.0 5.0 0.00 0.00 0.00 31 1010.3
20260504160106 67 235 7.0 9.0 0.00 0.00 0.00 40 1010.3